Probability
0 0 1 2 2 1 0 0 0 0 2 6 7 7 5 3 2 1 2 3 2 2 3 5 6 6 5 6 7 7 6 4 3 3 2 1 0 0 0 0 0 0 0
0 0 1 1 1 0 0 0 0 0 1 4 6 7 5 4 4 3 3 4 4 3 3 5 7 8 8 8 9 9 7 5 4 3 2 1 0 0 0 0 0 0 0
0 0 1 1 0 0 0 0 0 1 1 3 6 7 5 5 6 6 6 6 6 6 6 7 10 11 11 11 11 11 9 7 5 4 3 1 0 0 0 0 0 0 0
0 0 1 1 0 0 0 0 0 1 2 4 6 6 5 5 6 6 6 5 6 8 10 10 11 12 12 11 12 12 11 9 8 6 4 1 0 0 0 0 0 0 0
0 0 1 1 0 0 0 0 0 0 1 3 4 4 4 4 4 5 5 4 5 7 8 7 8 10 10 9 10 10 10 10 10 8 5 1 0 0 0 0 0 0 0
0 0 1 1 0 0 1 1 1 1 1 2 3 3 3 3 3 4 4 4 4 4 4 4 5 7 7 7 7 7 8 10 11 10 6 2 0 0 0 0 0 0 0
0 0 0 0 0 1 2 2 2 1 1 3 4 3 2 3 3 3 4 4 3 2 1 2 3 4 4 4 4 5 6 9 10 9 6 2 0 0 0 0 0 0 0
0 0 0 0 0 1 1 2 1 1 1 3 3 2 2 3 3 3 3 4 3 1 0 1 1 1 2 2 3 4 5 6 8 7 5 2 0 0 0 0 0 0 0
0 0 0 0 0 0 0 0 0 0 1 1 1 1 1 2 3 3 3 3 2 1 0 0 0 0 0 1 2 3 4 4 5 5 3 1 0 0 0 0 0 0 0
0 0 0 0 0 0 0 0 0 0 0 0 0 0 0 1 2 3 3 3 2 1 0 0 0 0 0 0 1 2 3 4 3 3 1 0 0 1 1 0 0 0 0
0 0 0 0 0 0 0 0 0 0 0 0 0 0 0 0 1 2 2 2 1 0 0 0 1 2 3 2 1 2 3 4 3 1 0 0 0 1 1 0 0 0 0
0 0 0 0 0 0 0 0 0 0 0 0 0 0 0 0 0 1 1 1 0 0 0 0 1 5 6 5 3 3 4 4 2 1 0 0 0 1 1 0 0 0 0
0 0 0 0 0 0 0 0 0 0 0 0 0 0 0 0 0 0 0 0 0 0 0 0 1 3 5 5 4 3 3 3 1 0 0 0 0 0 0 0 0 0 0
0 0 0 0 0 0 0 0 0 0 0 0 0 0 0 0 0 0 0 0 0 0 0 0 0 1 2 3 3 2 1 1 0 0 0 0 0 0 0 0 0 0 0
0 0 0 0 0 0 0 0 0 0 0 0 0 0 0 0 0 0 0 0 0 0 0 0 0 0 0 1 1 1 0 0 0 0 0 0 0 0 0 0 0 0 0
0 0 0 0 0 0 0 0 0 0 0 0 0 0 0 0 0 0 0 0 0 0 0 0 0 0 0 0 0 0 0 0 0 0 0 0 0 0 0 0 0 0 0
0 0 0 0 0 0 0 0 0 0 0 0 0 0 0 0 0 0 0 0 0 0 0 0 0 0 0 0 0 0 0 0 0 0 0 0 0 0 0 0 0 0 0
0 0 0 0 0 0 0 0 0 0 0 0 0 0 0 0 0 0 0 0 0 0 0 0 0 0 0 0 0 0 0 0 0 0 0 0 0 0 0 0 0 0 0
0 0 0 0 0 0 0 0 0 0 0 0 0 0 0 0 0 0 0 0 0 0 0 0 0 0 0 0 0 0 0 0 0 0 0 0 0 0 0 0 0 0 0
0 0 0 0 0 0 0 0 0 0 0 0 0 0 0 0 0 0 0 0 0 0 0 0 0 0 0 0 0 0 0 0 0 0 0 0 0 0 0 0 0 0 0
0 0 0 0 0 0 0 0 0 0 0 0 0 0 0 0 0 0 0 0 0 0 0 0 0 0 0 0 0 0 0 0 0 0 0 0 0 0 0 0 0 0 0
0 0 0 0 0 0 0 0 0 0 0 0 0 0 0 0 0 0 0 0 0 0 0 0 0 0 0 0 0 0 0 0 0 0 0 0 0 0 0 0 0 0 0
0 0 0 0 0 0 0 0 0 0 0 0 0 0 0 0 0 0 0 0 0 0 0 0 0 0 0 0 0 0 0 0 0 0 0 0 0 0 0 0 0 0 0
0 0 0 0 0 0 0 0 0 0 0 0 0 0 0 0 0 0 0 0 0 0 0 0 0 0 0 0 0 0 0 0 0 0 0 0 0 0 0 0 0 0 0
0 0 0 0 0 0 0 0 0 0 0 0 0 0 0 0 0 0 0 0 0 0 0 0 0 0 0 0 0 0 0 0 0 0 0 0 0 0 0 0 0 0 0
0 0 0 0 0 0 0 0 0 0 0 0 0 0 0 0 0 0 0 0 0 0 0 0 0 0 0 0 0 0 0 0 0 0 0 0 0 0 0 0 0 0 0
Wind_Speed
4 5 4 3 3 3 3 3 3 2 2 2 3 3 3 3 3 3 5 6 6 6 5 4 5 4 4 5 5 4 4 3 2 2 1 1 2 2 2 2 2 2 2
4 5 5 4 3 3 4 4 3 2 2 2 2 3 3 3 3 3 4 6 6 6 5 5 5 5 4 5 5 4 3 3 3 3 2 1 1 2 2 2 2 2 2
4 4 4 4 3 3 3 3 3 3 3 3 2 2 2 2 2 3 3 4 5 5 5 6 5 5 5 5 5 5 5 4 4 4 4 3 3 1 1 2 2 3 2
4 4 5 4 3 3 3 3 3 3 3 3 3 4 3 3 3 3 3 3 4 5 5 5 6 5 4 5 5 5 4 5 4 3 3 2 2 3 2 1 2 3 3
4 4 4 4 3 3 2 1 2 3 3 3 3 3 3 2 2 3 4 4 4 5 5 5 5 5 4 5 5 5 5 5 5 4 3 2 1 2 3 3 2 1 1
5 5 4 4 4 3 2 1 1 1 2 2 2 2 3 3 3 4 5 4 3 3 5 4 4 5 4 5 5 5 6 5 5 4 4 4 3 3 3 3 3 2 1
5 5 4 4 3 3 2 1 0 1 1 2 2 2 3 3 4 4 4 4 3 3 5 4 4 4 5 5 5 5 6 6 6 5 4 4 3 3 3 3 2 2 1
5 5 4 4 3 3 3 2 1 0 0 0 1 2 2 3 3 3 3 4 4 5 5 5 5 5 5 5 5 4 5 4 5 5 5 3 3 3 3 3 3 2 1
5 5 4 4 4 4 3 3 3 2 1 1 1 1 2 2 3 3 3 4 4 4 5 5 6 5 5 5 5 4 5 5 5 5 5 4 3 3 3 3 3 4 3
5 5 4 4 4 4 3 4 4 3 2 2 2 2 2 2 2 2 3 3 4 3 4 4 4 4 4 5 5 4 5 5 5 4 5 4 3 3 3 3 2 2 3
5 4 4 4 4 4 4 4 4 4 4 3 3 2 2 2 2 2 3 3 3 3 3 4 4 4 4 5 5 5 5 6 5 5 5 5 5 4 3 3 2 2 2
4 4 4 4 4 4 4 4 4 4 4 4 3 3 3 2 2 2 2 2 2 2 2 3 3 4 4 4 5 5 5 6 7 6 6 6 4 5 4 3 3 3 3
5 5 5 4 4 4 4 4 4 4 4 4 4 4 4 3 3 3 2 2 1 1 2 2 3 4 4 4 4 4 5 5 6 6 6 6 6 5 4 4 3 2 2
4 5 5 5 5 4 4 4 5 4 4 4 4 4 4 3 3 3 2 2 1 1 2 2 2 2 3 3 3 3 4 4 4 5 5 6 6 6 5 4 4 3 3
4 5 5 5 5 5 5 4 5 5 4 4 4 4 4 3 3 2 2 1 1 1 1 1 1 1 1 2 3 3 4 4 5 4 4 5 6 6 5 4 4 5 4
4 4 5 5 5 5 6 5 5 5 5 4 4 4 4 3 3 2 2 1 1 1 1 1 1 1 1 2 3 3 3 5 5 5 5 5 6 7 7 6 6 5 5
4 4 4 4 4 5 5 6 5 5 5 4 4 4 4 4 3 2 2 1 1 0 1 1 1 1 1 3 4 4 3 4 5 5 5 4 5 6 5 6 6 4 4
3 3 4 4 4 4 5 5 5 5 4 4 4 4 4 4 4 3 2 2 1 1 1 0 0 0 1 3 5 6 4 4 4 5 6 6 6 6 6 6 5 3 2
2 3 3 3 4 4 5 5 5 5 5 5 5 5 5 4 4 3 3 2 1 1 1 1 1 1 2 4 5 5 3 3 4 4 5 6 6 9 9 7 6 4 2
3 3 3 3 4 4 4 5 5 5 5 5 5 5 5 4 4 3 3 2 1 1 0 1 1 2 2 4 6 5 3 4 4 4 4 7 8 10 10 6 6 5 3
3 3 3 3 3 4 4 5 5 5 5 6 6 5 5 4 3 3 2 1 1 1 0 1 1 1 2 4 6 5 3 4 4 4 3 4 10 10 10 7 5 7 6
2 3 3 3 3 4 4 4 5 5 5 5 5 5 5 4 3 2 2 1 1 1 1 1 1 0 1 3 4 5 5 5 4 4 3 5 10 10 9 6 7 9 7
2 2 2 3 3 3 4 5 5 5 5 5 6 5 5 4 3 2 2 1 1 1 1 1 1 1 1 2 5 5 6 6 3 3 7 8 10 8 6 8 9 7 4
1 2 2 3 3 4 4 4 5 5 5 5 5 4 4 4 3 3 2 1 1 1 1 2 2 2 2 2 2 2 3 5 4 4 7 9 9 5 6 6 5 3 4
1 1 1 2 3 4 4 4 4 4 5 5 5 4 4 4 3 3 2 3 2 2 2 2 2 3 3 4 5 3 3 3 4 5 3 3 3 3 3 3 3 3 3
1 1 1 2 3 3 4 4 4 4 5 4 4 3 3 3 3 3 3 5 4 4 4 3 3 2 3 5 7 7 7 8 10 6 4 4 4 4 5 5 4 3 4
Wind_Direction
157 148 142 127 123 118 130 121 125 146 157 171 171 165 176 174 178 186 183 185 186 183 180 184 188 185 189 195 193 191 192 194 169 143 219 246 218 205 186 167 148 134 124
132 141 141 132 134 128 134 142 155 156 158 179 189 170 165 179 182 185 189 190 190 186 184 186 192 190 192 200 201 193 189 190 173 162 165 214 251 236 182 151 149 145 130
136 135 129 121 120 128 138 151 167 163 182 183 186 159 154 159 173 191 199 201 194 192 190 193 196 197 196 203 203 197 192 195 197 183 172 180 201 170 192 184 165 156 147
114 127 128 133 131 136 155 160 173 172 185 191 192 182 186 191 198 194 199 205 198 198 197 196 199 199 199 201 203 199 198 191 197 202 203 196 159 158 178 211 187 167 169
93 95 109 122 118 116 122 155 167 174 187 187 197 193 201 210 201 189 196 207 207 202 199 196 199 202 202 202 200 200 202 203 201 192 180 192 203 185 168 194 195 189 191
77 83 78 83 83 90 91 92 147 185 189 185 198 199 201 207 204 202 204 208 210 206 201 199 204 205 203 203 204 207 205 207 204 196 182 172 173 189 186 191 182 186 184
69 67 69 69 64 67 77 89 138 213 198 187 202 215 217 212 216 217 217 215 214 222 211 208 209 208 206 207 204 204 207 206 201 197 191 188 184 169 171 172 176 164 149
63 60 57 64 58 56 50 34 22 350 169 213 242 238 231 224 224 224 224 221 219 219 210 207 214 216 210 209 207 206 207 202 203 196 185 185 180 170 169 168 160 162 175
53 58 53 54 51 47 33 20 13 10 13 355 321 300 276 246 235 230 229 227 224 221 210 209 214 214 208 206 203 210 206 198 201 191 179 179 176 164 157 148 152 162 186
50 52 52 53 53 44 29 16 14 8 355 345 325 304 288 284 278 259 250 243 229 219 209 216 218 213 210 204 206 209 201 194 198 185 171 170 159 148 141 140 147 155 169
49 43 40 41 49 39 27 19 6 3 354 341 323 319 306 305 305 291 279 261 240 218 211 218 220 218 217 209 206 204 190 188 184 171 165 163 152 151 144 142 148 163 158
47 41 39 34 33 30 20 11 1 358 348 340 336 325 314 313 307 292 287 271 249 242 220 212 218 221 218 215 210 202 191 186 181 172 161 158 150 148 148 151 163 171 163
40 33 31 28 22 18 13 7 1 357 345 342 347 340 331 329 316 307 307 307 290 282 264 225 219 217 211 213 213 202 195 183 172 165 162 158 156 157 153 153 159 157 143
38 31 22 22 16 12 10 6 356 350 344 342 343 336 327 323 318 313 314 313 309 286 271 255 237 222 211 207 205 192 176 160 150 149 151 154 158 157 151 153 155 147 139
34 26 16 14 9 6 3 0 350 345 342 343 340 329 323 329 334 330 319 314 327 314 284 267 254 239 223 199 183 171 156 143 132 123 124 126 130 138 145 151 154 152 153
27 19 11 9 4 357 352 350 344 339 339 342 335 331 333 332 331 334 333 322 328 324 318 285 244 234 229 158 155 146 138 139 139 135 125 121 124 130 134 137 142 149 156
21 10 2 1 358 348 345 342 339 339 344 340 334 335 334 328 324 327 332 331 325 305 302 313 274 219 152 150 155 142 138 142 145 146 142 139 144 138 134 136 126 114 125
12 5 360 352 351 350 345 340 341 345 341 338 337 336 335 327 327 331 326 320 313 302 276 282 264 164 164 162 159 148 133 134 145 150 151 149 147 150 145 138 129 120 105
18 3 357 348 349 349 344 340 342 345 346 344 343 336 329 322 320 317 312 310 309 306 281 216 203 185 182 172 163 148 130 133 138 139 144 147 148 160 155 141 135 128 120
24 9 358 359 358 350 349 346 343 346 346 343 335 329 325 323 320 314 312 313 307 288 297 291 232 196 189 178 171 159 145 146 143 139 145 156 160 166 162 149 148 154 161
20 15 12 7 354 348 352 347 343 344 339 333 331 332 332 328 324 321 317 318 315 305 260 261 262 205 185 184 185 182 160 161 155 157 159 168 171 170 170 164 160 170 158
16 15 10 357 351 353 351 343 343 340 338 335 333 334 338 336 333 329 316 303 277 255 250 227 253 207 169 184 193 192 179 166 158 164 162 165 169 172 171 166 167 165 152
13 14 5 349 346 355 357 345 339 341 340 338 336 336 341 338 335 331 323 315 293 256 255 232 234 223 181 184 203 201 187 173 159 159 165 166 169 169 167 172 172 160 144
8 7 358 349 346 356 356 344 337 341 340 333 332 334 336 336 341 337 326 305 277 252 246 240 234 225 214 196 196 194 178 167 156 151 164 168 166 159 165 168 163 148 157
355 5 348 338 341 350 350 346 344 344 339 334 335 337 337 337 335 335 330 319 295 278 270 248 222 213 223 219 209 191 177 165 164 146 138 148 151 158 160 156 154 160 163
342 337 340 343 340 344 344 348 350 349 340 333 334 334 332 333 333 334 340 352 333 327 316 296 280 253 241 223 213 205 192 183 174 159 161 172 175 178 178 176 177 179 180